Starlink 6315

operational
NORAD ID: 57236 Int'l Des: 2023-094 Owner: SPXS Country: US Constellation: starlink
LEOCIRCULAR

About Starlink 6315

Description loading...

Live Position

Loading 3D Globe...

Upcoming Passes

Altitude History

Altitude vs Time

uPlot chart will show altitude changes over time

Two-Line Element Set

1 57236U 23094U 25258.45430381 .00000355 00000-0 41368-4 0 9990
2 57236 43.0036 250.0575 0001331 267.2220 92.8470 15.02535028120907
Epoch: Sep 15, 2025 • Age: 22 hours

Current Status

Altitude 562.5 km
Velocity 7.58 km/s
Sub-Earth Point -18.09°S, 38.42°W
Launch Date Jul 7, 2023
Age 2.1 years
Type internet

Technical Details

Classification Payload
Mass 305.00 kg
Dry Mass 290.00 kg
Total Mass 305.00 kg
Length 0.20 m
Diameter 2.80 m
Span 9.00 m
Shape Box + pan
Manufacturer SPXS
Bus Type Starlink
Phase Status In Orbit
Owner/State SPXS/US

Large Constellations

Loading constellations...